Regional Weather Roundup
Issued by NWS Goodland, KS

Home | Current Version | Previous Version | Text Only | Print | Product List | Glossary Off
Versions: 1 2 3 4 5 6 7 8 9 10 11 12 13 14 15 16 17 18 19 20 21 22 23 24 25 26 27 28 29 30 31 32 33 34 35 36 37 38 39 40 41 42 43 44 45 46 47 48 49 50

000
ASUS43 KGLD 250859
RWRGLD

GOODLAND FORECAST AREA HOURLY WEATHER ROUNDUP
NATIONAL WEATHER SERVICE GOODLAND KS
300 AM MDT WED APR 25 2018

...OFFICIAL OBSERVATIONS...

CITY           SKY/WX    TMP DP  RH WIND       PRES   REMARKS
GOODLAND KS    PTCLDY    31  30  96 NW12      30.35S
HILL CITY KS   CLOUDY    40  37  89 N20       30.32S
IMPERIAL NEB   CLOUDY    37  32  82 NW9       30.37F
MCCOOK NEB     CLOUDY    38  34  85 NW10      30.35S
AKRON CO       CLEAR     26  25  96 W9        30.37F
BURLINGTON CO  CLEAR     31  28  89 N9        30.35F
LIMON CO       CLEAR     27  25  92 NW8       30.36F
$$

...UNOFFICIAL OBSERVATIONS...

CITY           SKY/WX    TMP DP  RH WIND       PRES   REMARKS
NORTON KS      CLOUDY    39  36  87 NW16      30.32
SHARON SPRINGS   N/A     33  30  90 NW12        N/A
KIT CARSON CO    N/A     31  28  88 MISG        N/A
YUMA CO        FAIR      30  28  93 NW9       30.37F
$$




USA.gov is the U.S. government's official web portal to all federal, state and local government web resources and services.